Location: Newark
(52.3500°N, 175.9667°E)
Time: 00:53:30
(UTC+00:00)

deb Explorer IX - All Passes

Search period start: 19 April 2021 00:00
Search period end: 29 April 2021 00:00
Orbit: 540 x 1099 km, 38.8° (Epoch: 17 April)

Date Brightness Start Highest point End Pass type
(mag) Time Alt. Az. Time Alt. Az. Time Alt. Az.
19 Apr - 19:54:51 10° S 19:56:42 12° SSE 19:58:38 10° SE daylight
19 Apr - 21:39:08 10° SW 21:42:19 18° S 21:45:49 10° SE daylight
19 Apr - 23:25:30 10° SW 23:28:06 14° SSW 23:30:52 10° SSE daylight
20 Apr - 19:31:28 10° S 19:33:02 12° SSE 19:34:39 10° SE daylight
20 Apr - 21:15:39 10° SW 21:18:38 17° S 21:21:54 10° SE daylight
20 Apr - 23:02:06 10° SW 23:04:23 13° SSW 23:06:49 10° S daylight
21 Apr - 19:08:07 10° S 19:09:22 11° SSE 19:10:41 10° SE daylight
21 Apr - 20:52:09 10° SW 20:54:57 16° S 20:57:58 10° SE daylight
21 Apr - 22:38:43 10° SW 22:40:41 12° SSW 22:42:44 10° S daylight
22 Apr - 18:44:48 10° S 18:45:43 11° SSE 18:46:40 10° SSE daylight
22 Apr - 20:28:41 10° SW 20:31:17 15° S 20:34:04 10° SE daylight
22 Apr - 22:15:24 10° SW 22:16:59 11° SSW 22:18:38 10° S daylight
23 Apr - 18:21:34 10° S 18:22:05 10° SSE 18:22:36 10° SSE daylight
23 Apr - 20:05:13 10° SSW 20:07:38 15° S 20:10:12 10° SE daylight
23 Apr - 21:52:12 10° SSW 21:53:18 11° SSW 21:54:28 10° S daylight
24 Apr - 19:41:45 10° SSW 19:44:00 14° S 19:46:21 10° SSE daylight
24 Apr - 21:29:21 10° SSW 21:29:38 10° SSW 21:29:55 10° SSW daylight
25 Apr - 19:18:16 10° SSW 19:20:21 13° S 19:22:31 10° SSE daylight
26 Apr - 18:54:46 10° SSW 18:56:44 13° S 18:58:44 10° SSE daylight
27 Apr - 18:31:16 10° SSW 18:33:06 13° S 18:34:58 10° SSE daylight
28 Apr - 18:07:43 10° SSW 18:09:29 12° S 18:11:15 10° SSE daylight
